STARLINK-3086, 49178

Orbit data source: Space-Track

STARLINK-3086, 49178 is a payload satellite owned by SpaceX/Seattle (US) in LEO that was launched on Tue, 14 Sep 2021 UTC via an FALCON 9 launch vehicle from the Air Force Western Test Range (AFWTR). Payload-class satellites include a variety of spacecraft equipped with specific instruments for various scientific and technological missions. These include communications satellites like Starlink; space stations such as the ISS; scientific satellites like the Hubble; Earth observation satellites from companies like Planet Labs, Umbra, and HawkEye 360; GPS; miniature CubeSats for education and research; and military/defense satellites.

Loading next visibility...
Identifier
49178, 2021-082BA
Orbit
LEO
Country
Flag of USUS
Related business
Manufacturer
SpaceX/Seattle
Mission
Operational Commercial Communications
Bus & Motor
STARLINK, Unknown motor
Mass
297 kg wet, ~275 kg dry
Launch date (UTC)
2021-09-14 (4 years ago)
Launch vehicle
FALCON 9
Launch site
Air Force Western Test Range (AFWTR)
Object type
Payload
Rocket body
Debris
Shape & HBR
Box + 1 Pan, 10.1 m
Radar Cross Section
13.562 m², Large (>1 m²)

Expand to show TLE details & history
Last TLE update: 9 hours ago

TLE from 9 hours ago
0 STARLINK-3086
1 49178U 21082BA  25340.62135122  .00000339  00000-0  36227-4 0  9997
2 49178  69.9994 169.0987 0002911 268.8928  91.1897 14.98331497233195
Epoch: 2025-12-06T14:54Z
TLE epoch observation values (Epoch: 2025-12-06T14:54:44.745Z)
Latitude
-0.00007°
Longitude
-130.23422°
Altitude
574.518 km
Speed
7.574 km/s
True Right ascension
11h 16m 23s
True Declination
0° 00' 00"
Sunlit
Object was in daylight at epoch
Visualization orbit readout
Latitude
Unknown
Longitude
Unknown
Altitude
Unknown
Speed
Unknown
Apparent Right ascension
Unknown
Apparent Declination
Unknown
Sunlit
N/A
Visualization observer readout
Local Sidereal Time
21:38:10
Azimuth
Unknown
Elevation
Unknown
Doppler factor
Unknown
Orbital elements
Apogee altitude
572.022 km
Perigee altitude
567.977 km
Semi-major axis
6,948.137 km
Eccentricity
0.00029
Inclination
69.9994°
RAAN
169.0987°
Arg. of periapsis
268.8928°
True anomaly
91.22305°
Mean anomaly
91.1897°
Eccentric anomaly
91.20638°
Mean motion
3.74749 °/min
Orbital period
96.06 mins
BSTAR
0.000036227
Loading maneuver chart data...
Computing Atmospheric mass density...
Loading historical data...
Loading historical data...
Loading historical data...
Loading historical data...
Loading historical data...
Loading historical data...
Loading historical data...

Documentation

Showing up to 5 results
|